GW7221 Weather Reports


time (UTC)temp
F
wind
direction
speed
knots
gust
knots
rain 1hr
in
rain 24hr
in
rain mn
in
humidity
%
barometer
mb
20260505004345 63 302 0.9 0.9 0.00 0.00 0.00 72 1025.1
20260505003846 63 301 0.9 0.9 0.00 0.00 0.00 71 1025.1
20260505003345 63 325 0.9 0.9 0.00 0.00 0.00 74 1025.1
20260505002845 62 324 0.9 1.7 0.00 0.00 0.00 72 1024.7
20260505002345 61 324 0.0 0.0 0.00 0.00 0.00 77 1024.7
20260505001846 60 325 0.9 0.9 0.00 0.00 0.00 78 1025.1
20260505001345 60 323 0.9 0.9 0.00 0.00 0.00 80 1024.7
20260505000845 60 310 0.9 1.7 0.00 0.00 0.00 82 1024.7
20260505000346 60 343 0.9 0.9 0.00 0.00 0.00 82 1024.7
20260504235845 59 309 0.9 0.9 0.00 0.00 0.00 83 1024.7
20260504235345 59 279 0.9 1.7 0.00 0.00 0.00 85 1024.7
20260504234845 59 345 0.0 0.9 0.00 0.00 0.00 88 1024.7
20260504234346 58 345 0.9 0.9 0.00 0.00 0.00 89 1024.7
20260504233846 58 345 0.0 0.0 0.00 0.00 0.00 90 1024.7
20260504233346 58 345 0.0 0.0 0.00 0.00 0.00 91 1024.7
20260504232845 57 346 0.0 0.9 0.00 0.00 0.11 92 1024.4
20260504232346 57 346 0.0 0.9 0.00 0.00 0.11 92 1024.4
20260504231845 57 345 0.0 0.0 0.00 0.00 0.11 93 1024.4
20260504231346 56 345 0.0 0.0 0.00 0.00 0.11 93 1024.0
20260504230846 56 302 0.0 0.0 0.00 0.00 0.11 94 1024.0
20260504230345 55 302 0.0 0.9 0.00 0.00 0.11 94 1024.0
20260504225845 55 302 0.9 0.9 0.00 0.00 0.11 94 1024.0
20260504225346 55 310 0.0 0.0 0.00 0.00 0.11 94 1024.0
20260504224845 54 310 0.9 0.9 0.00 0.00 0.11 94 1024.0
20260504224346 54 310 0.0 0.0 0.00 0.00 0.11 94 1024.0
20260504223845 54 310 0.0 0.0 0.00 0.00 0.11 94 1024.0
20260504223346 53 309 0.9 0.9 0.00 0.00 0.11 94 1023.7
20260504222845 53 276 0.9 1.7 0.00 0.00 0.11 94 1023.7
20260504222346 53 278 1.7 1.7 0.00 0.00 0.11 94 1023.7
20260504221845 53 302 1.7 1.7 0.00 0.00 0.11 94 1023.4
20260504221346 52 310 0.9 1.7 0.00 0.00 0.11 94 1023.4
20260504220845 51 316 0.9 0.9 0.00 0.00 0.11 94 1023.4
20260504220347 51 316 0.0 0.9 0.00 0.00 0.11 94 1023.4
20260504215845 51 316 0.0 0.9 0.00 0.00 0.11 93 1023.4
20260504215345 51 316 0.0 0.0 0.00 0.00 0.11 93 1023.4
20260504214845 51 305 0.0 0.9 0.00 0.00 0.11 93 1023.0
20260504214345 51 306 1.7 1.7 0.00 0.00 0.11 93 1023.0
20260504213845 51 340 0.9 0.9 0.00 0.00 0.11 93 1023.4
20260504213346 51 339 0.0 0.0 0.00 0.00 0.11 93 1023.0
20260504212846 50 339 0.0 1.7 0.00 0.00 0.11 93 1023.0
20260504212345 50 307 0.0 0.0 0.00 0.00 0.11 93 1023.0
20260504211846 50 307 0.0 0.9 0.00 0.00 0.11 93 1023.0
20260504211345 51 307 0.9 0.9 0.00 0.00 0.11 92 1023.0
20260504210845 51 307 0.0 0.0 0.00 0.00 0.11 93 1023.0
20260504210346 51 307 0.0 0.0 0.00 0.00 0.11 93 1023.0
20260504205845 51 302 0.0 0.0 0.00 0.00 0.11 93 1023.0
20260504205346 51 302 0.0 0.9 0.00 0.00 0.11 92 1023.0
20260504204845 51 301 0.9 0.9 0.00 0.00 0.11 92 1023.0
20260504204345 51 302 0.0 0.0 0.00 0.00 0.11 92 1022.7
20260504203845 52 302 0.0 0.0 0.00 0.00 0.11 92 1023.0
20260504203346 52 302 0.0 0.0 0.00 0.00 0.11 92 1022.7
20260504202846 52 301 0.0 0.0 0.00 0.00 0.11 92 1022.7
20260504202347 52 301 0.0 0.0 0.00 0.00 0.11 92 1022.7
20260504201846 53 301 0.9 0.9 0.00 0.00 0.11 91 1022.7
20260504201346 53 301 0.0 0.9 0.00 0.00 0.11 91 1022.7
20260504200845 53 302 0.9 0.9 0.00 0.00 0.11 91 1022.7
20260504200347 54 302 0.9 0.9 0.00 0.00 0.11 91 1022.7
20260504195851 54 302 0.9 0.9 0.00 0.00 0.11 91 1022.7
20260504195346 54 301 0.9 0.9 0.00 0.00 0.11 91 1022.7
20260504194845 54 301 0.0 0.9 0.00 0.00 0.11 91 1022.4
20260504194345 55 296 0.9 1.7 0.00 0.00 0.11 90 1022.7
20260504193845 55 286 0.9 0.9 0.00 0.00 0.11 90 1022.7
20260504193346 55 265 0.9 0.9 0.00 0.00 0.11 90 1022.7
20260504192846 55 266 0.9 0.9 0.00 0.00 0.11 90 1022.7
20260504192346 56 268 1.7 1.7 0.00 0.00 0.11 90 1022.7
20260504191849 56 199 2.6 2.6 0.00 0.00 0.11 90 1022.7
20260504191348 56 242 2.6 5.2 0.00 0.00 0.11 89 1022.7
20260504190845 56 219 4.3 5.2 0.00 0.00 0.11 88 1022.7
20260504190346 55 227 2.6 4.3 0.00 0.00 0.11 89 1022.7
20260504185846 55 199 1.7 4.3 0.00 0.00 0.11 89 1022.7
20260504185347 56 230 2.6 4.3 0.00 0.00 0.11 89 1022.7
20260504184846 56 212 3.5 4.3 0.00 0.00 0.11 89 1022.7
20260504184345 56 210 1.7 5.2 0.00 0.00 0.11 89 1022.4
20260504183846 56 185 3.5 4.3 0.00 0.00 0.11 90 1022.7
20260504183346 56 206 2.6 6.1 0.00 0.00 0.11 90 1022.7
20260504182846 55 201 0.9 2.6 0.00 0.00 0.11 91 1022.7
20260504182346 55 6 0.0 0.9 0.00 0.00 0.11 90 1022.7
20260504181848 55 5 0.0 0.9 0.00 0.00 0.11 90 1022.7
20260504181346 55 6 0.0 0.0 0.00 0.00 0.11 89 1022.4
20260504180846 55 6 0.0 0.0 0.00 0.00 0.11 89 1022.4
20260504180346 55 6 0.0 0.0 0.00 0.00 0.11 89 1022.4
20260504175847 56 6 0.9 0.9 0.00 0.00 0.11 89 1022.4
20260504175346 56 6 0.0 0.0 0.00 0.00 0.11 89 1022.4
20260504174845 56 6 0.9 0.9 0.00 0.00 0.11 89 1022.7
20260504174346 56 6 0.0 0.0 0.00 0.00 0.11 88 1022.7
20260504173845 56 349 0.9 1.7 0.00 0.00 0.11 88 1022.4
20260504173345 56 314 0.9 0.9 0.00 0.00 0.11 87 1022.7
20260504172847 56 295 1.7 1.7 0.00 0.00 0.11 87 1022.4
20260504172349 56 296 2.6 4.3 0.00 0.00 0.11 87 1022.7
20260504171847 56 310 3.5 5.2 0.00 0.00 0.11 86 1022.4
20260504171347 56 321 2.6 2.6 0.00 0.00 0.11 86 1022.4
20260504170846 57 315 0.9 2.6 0.00 0.00 0.11 85 1022.7
20260504170346 57 310 2.6 1.7 0.00 0.00 0.11 85 1022.7
20260504160346 58 191 2.6 2.6 0.00 0.00 0.11 79 1022.4
20260504150845 55 286 0.0 0.0 0.00 0.00 0.11 76 1022.4
20260504150349 54 286 0.9 0.9 0.00 0.00 0.11 76 1022.4
20260504140846 58 286 0.0 0.9 0.00 0.00 0.11 66 1022.4
20260504140346 58 292 0.9 0.9 0.00 0.00 0.11 67 1022.4
20260504130346 60 266 0.9 0.9 0.00 0.00 0.11 64 1022.7
20260504110345 60 230 0.9 0.9 0.00 0.00 0.11 71 1022.0
20260504100345 59 158 0.0 0.0 0.00 0.00 0.11 85 1021.3
20260504081446 59 194 2.6 6.1 0.00 0.00 0.11 84 1019.6
20260504080845 60 199 2.6 7.0 0.00 0.00 0.11 83 1019.6
20260504080345 60 201 4.3 7.0 0.00 0.00 0.11 82 1020.0
20260504070346 62 254 6.1 7.8 0.00 0.00 0.11 76 1019.3
20260504050346 60 246 1.7 5.2 0.06 0.00 0.11 90 1018.3
20260504045846 60 234 2.6 7.0 0.05 0.00 0.11 88 1018.3
20260504045345 62 228 2.6 5.2 0.04 0.00 0.10 86 1018.6
20260504044845 62 257 3.5 5.2 0.04 0.00 0.09 82 1018.6
20260504044347 62 228 2.6 6.1 0.04 0.00 0.09 82 1018.3
20260504043845 60 183 5.2 6.1 0.04 0.00 0.09 86 1018.3
20260504043347 60 170 4.3 8.7 0.04 0.00 0.09 86 1018.3
20260504042845 60 188 8.7 9.6 0.04 0.00 0.09 86 1018.6
20260504042346 60 170 4.3 8.7 0.03 0.00 0.09 87 1018.6
20260504041846 62 186 6.1 9.6 0.01 0.00 0.08 81 1018.6
20260504041346 66 184 5.2 7.0 0.00 0.00 0.05 72 1018.3
20260504040845 64 230 3.5 5.2 0.00 0.00 0.05 75 1018.3
20260504040346 64 213 6.1 7.8 0.00 0.00 0.05 74 1018.6
20260504035845 63 228 3.5 5.2 0.00 0.00 0.05 76 1018.3
20260504035345 63 225 3.5 5.2 0.00 0.00 0.05 75 1018.3
20260504034846 62 281 0.9 5.2 0.00 0.00 0.05 78 1018.3
20260504034345 63 206 7.0 9.6 0.00 0.00 0.05 74 1018.3
20260504033846 63 195 7.0 9.6 0.00 0.00 0.05 77 1018.3
20260504033346 63 200 4.3 11.3 0.00 0.00 0.05 79 1018.3
20260504032845 64 223 7.0 9.6 0.00 0.00 0.05 77 1018.6
20260504032346 64 252 8.7 11.3 0.00 0.00 0.05 75 1018.6
20260504031845 63 203 4.3 6.1 0.00 0.00 0.05 78 1018.3
20260504031346 63 195 4.3 7.0 0.00 0.00 0.05 82 1018.3
20260504030846 62 303 1.7 8.7 0.00 0.00 0.05 85 1018.6
20260504030345 62 208 4.3 9.6 0.00 0.00 0.05 84 1018.3
20260504025845 63 240 7.0 12.2 0.00 0.00 0.05 80 1018.6
20260504025346 64 253 7.0 9.6 0.01 0.00 0.05 77 1018.6
20260504024847 65 254 7.8 12.2 0.02 0.00 0.05 74 1019.0
20260504024345 66 227 6.1 7.8 0.03 0.00 0.05 74 1018.6
20260504023846 65 213 4.3 9.6 0.03 0.00 0.05 73 1018.6
20260504023346 65 226 7.0 8.7 0.03 0.00 0.05 73 1018.6
20260504022845 65 201 6.1 8.7 0.03 0.00 0.05 72 1018.6
20260504022345 64 246 3.5 6.1 0.03 0.00 0.05 78 1018.6
20260504021845 63 211 4.3 8.7 0.03 0.00 0.05 80 1019.0
20260504021345 62 223 2.6 6.1 0.03 0.00 0.05 83 1019.0
20260504020845 61 240 0.9 1.7 0.03 0.00 0.05 87 1019.0
20260504020345 60 251 0.0 0.9 0.03 0.00 0.05 85 1019.0
20260504015845 60 280 0.9 1.7 0.02 0.00 0.05 83 1019.0
20260504015345 61 300 1.7 2.6 0.01 0.00 0.05 83 1019.0
20260504014849 63 221 2.6 4.3 0.00 0.00 0.03 81 1019.0
20260504014345 65 185 4.3 8.7 0.01 0.00 0.02 72 1019.0
20260504013845 66 185 6.1 8.7 0.02 0.00 0.02 71 1019.0
20260504013346 66 270 4.3 6.1 0.02 0.00 0.02 70 1018.6
20260504012845 66 263 2.6 5.2 0.02 0.00 0.02 70 1018.6
20260504012345 65 246 2.6 6.1 0.02 0.00 0.02 73 1018.6
20260504011845 65 272 3.5 6.1 0.02 0.00 0.02 73 1018.6
20260504011346 64 211 4.3 7.0 0.02 0.00 0.02 73 1018.6
20260504010849 64 240 2.6 5.2 0.02 0.00 0.02 77 1018.6
20260504010345 62 226 4.3 7.0 0.02 0.00 0.02 82 1018.6
20260504005845 60 231 0.9 2.6 0.02 0.00 0.02 86 1018.6
20260504005345 60 228 3.5 5.2 0.02 0.00 0.02 86 1018.6
20260504004846 59 288 2.6 5.2 0.02 0.00 0.02 86 1018.6